Dewpoint
-18 -15 -13 -12 -13 -20 -21 -13 -12 -12 -12 -11 -11 -11 -13 -14 -13 -12 -13 -17 -15 -10 0 3 11 12 11 10 9 9 11 11 11 10 10 10 10 9 8 7 6 5 5
-14 -13 -13 -15 -23 -24 -11 -12 -9 -7 -7 -6 -6 -7 -7 -8 -9 -10 -10 -10 -14 -17 -13 -2 2 8 12 12 10 9 9 10 11 11 10 10 11 10 9 8 7 5 5
-14 -15 -18 -26 -29 -11 -14 -14 -10 -5 -4 -4 -3 -3 -3 -3 -4 -4 -5 -6 -6 -10 -15 -15 -6 2 5 10 12 10 9 10 11 11 11 11 11 11 10 9 9 7 6
-16 -19 -28 -30 -25 -12 -15 -15 -10 -5 -3 -2 -2 -1 -2 -2 -2 -2 -2 -1 -1 -1 -5 -12 -15 -8 1 4 10 12 10 9 10 11 12 11 11 11 11 10 10 9 7
-19 -27 -30 -31 -21 -17 -17 -11 -5 -4 -3 -2 -2 -2 -2 -1 -1 -1 0 1 2 1 0 -2 -9 -15 -8 3 6 13 12 10 10 11 12 12 11 11 11 10 10 10 10
-25 -30 -31 -29 -25 -19 -8 -5 -4 -4 -3 -2 -3 -2 -3 -1 -0 1 1 1 3 3 4 2 0 -3 -12 -3 6 12 12 11 8 10 11 11 10 11 10 10 9 9 9
-30 -31 -31 -29 -23 -8 -5 -5 -4 -3 -3 -3 -3 -3 -2 -1 1 0 -2 -0 2 3 3 4 3 0 -1 -3 6 7 12 12 11 11 11 11 10 11 8 8 9 9 11
-31 -32 -31 -29 -14 -6 -6 -6 -4 -4 -4 -4 -4 -3 -2 -2 0 -4 -1 -1 0 2 4 4 5 2 1 2 8 7 8 11 11 11 10 10 11 11 9 8 10 9 11
-32 -32 -30 -28 -17 -6 -8 -10 -5 -4 -4 -4 -5 -5 -3 -3 -4 -2 -2 -1 -1 1 3 4 4 3 1 3 8 8 8 8 11 11 11 11 11 10 8 9 10 11 11
-32 -32 -32 -31 -27 -16 -15 -11 -7 -8 -5 -5 -5 -5 -6 -5 -4 -3 -2 -2 -1 -1 2 3 4 5 6 6 6 8 9 9 9 11 11 11 10 10 8 10 9 10 11
-32 -33 -34 -34 -33 -26 -21 -14 -14 -12 -5 -5 -6 -6 -6 -6 -5 -4 -3 -2 -2 -1 1 2 3 4 5 6 7 8 9 9 8 9 10 11 11 9 9 9 11 10 10
-32 -34 -34 -34 -33 -29 -23 -20 -21 -12 -8 -6 -6 -6 -7 -7 -6 -6 -5 -4 -3 -2 -1 0 1 1 4 5 6 7 8 8 8 8 8 8 10 10 10 9 10 10 9
-32 -33 -34 -35 -35 -31 -28 -26 -20 -10 -11 -9 -6 -7 -8 -7 -7 -6 -5 -5 -3 -2 -1 0 1 1 1 3 5 6 7 7 7 7 8 8 8 9 10 9 9 9 9
-32 -34 -35 -36 -36 -34 -32 -29 -15 -16 -14 -11 -6 -7 -7 -7 -7 -7 -6 -5 -4 -2 -1 -0 0 1 1 1 3 4 7 7 6 6 5 6 9 9 8 8 7 8 9
-33 -34 -35 -36 -35 -35 -35 -33 -22 -28 -15 -11 -7 -6 -7 -7 -6 -6 -5 -5 -5 -4 -2 -1 -0 -0 0 1 2 0 4 5 7 8 8 8 8 9 10 9 4 7 8
-33 -34 -35 -35 -35 -35 -34 -33 -28 -31 -26 -12 -10 -6 -6 -7 -6 -5 -5 -5 -4 -4 -3 -2 -1 -1 -0 0 1 1 2 3 4 6 7 7 8 8 9 9 9 10 10
-33 -33 -35 -35 -35 -34 -34 -33 -33 -33 -31 -24 -17 -10 -6 -7 -6 -5 -5 -4 -3 -3 -2 -2 -2 -1 0 0 -0 -1 1 1 2 2 4 6 6 7 7 8 9 9 9
-32 -32 -34 -35 -34 -34 -34 -34 -34 -34 -33 -33 -27 -22 -9 -6 -6 -5 -5 -4 -3 -3 -3 -2 -2 -2 -2 -3 -2 -2 -2 -2 1 -0 2 3 4 4 4 6 7 7 8
-31 -30 -32 -34 -34 -34 -34 -34 -34 -34 -33 -33 -31 -26 -27 -11 -6 -5 -5 -5 -4 -4 -3 -3 -4 -4 -4 -4 -4 -5 -4 -6 -3 -0 -0 3 3 3 1 4 4 4 5
-30 -29 -32 -34 -34 -34 -34 -34 -34 -34 -34 -33 -32 -30 -29 -29 -18 -5 -5 -5 -5 -5 -5 -5 -5 -5 -5 -5 -5 -6 -4 -5 -6 -5 -6 -3 1 -2 -1 1 1 2 3
-28 -28 -31 -30 -32 -34 -34 -32 -34 -34 -34 -33 -32 -31 -31 -31 -31 -27 -9 -5 -5 -5 -6 -6 -6 -6 -6 -6 -6 -7 -7 -6 -4 -5 -6 -4 -3 -4 -7 -6 -3 -4 -1
-30 -31 -33 -33 -33 -33 -33 -32 -32 -34 -35 -35 -34 -33 -33 -33 -32 -32 -32 -30 -17 -7 -6 -6 -7 -8 -7 -7 -7 -7 -7 -7 -7 -7 -6 -7 -7 -11 -15 -24 -30 -29 -26
-31 -32 -33 -32 -32 -32 -32 -31 -31 -33 -34 -35 -36 -35 -35 -35 -35 -35 -36 -35 -35 -33 -32 -22 -20 -14 -9 -9 -8 -8 -7 -7 -7 -8 -9 -9 -10 -9 -26 -34 -35 -37 -38
-31 -31 -30 -29 -30 -31 -31 -30 -31 -32 -33 -34 -35 -36 -36 -37 -36 -36 -37 -37 -37 -37 -36 -35 -34 -34 -33 -26 -19 -16 -13 -19 -21 -26 -15 -12 -11 -12 -14 -31 -39 -39 -39
-31 -29 -27 -26 -25 -28 -29 -29 -29 -30 -31 -31 -35 -37 -37 -37 -38 -37 -37 -37 -37 -36 -35 -34 -34 -35 -37 -38 -36 -21 -15 -12 -14 -34 -35 -14 -15 -12 -17 -29 -38 -39 -39
-27 -26 -25 -24 -24 -24 -28 -28 -29 -23 -26 -21 -26 -33 -37 -37 -38 -37 -37 -37 -37 -37 -37 -37 -37 -37 -38 -38 -39 -39 -32 -25 -18 -19 -35 -15 -15 -14 -9 -16 -33 -37 -35
Wind_Speed
16 17 18 20 21 23 25 29 32 33 34 33 33 34 34 35 35 35 37 41 44 43 41 40 42 42 41 41 41 40 39 38 39 39 38 38 37 35 33 32 31 31 30
14 15 17 19 21 22 26 31 34 34 32 31 30 30 31 32 34 36 37 38 41 46 47 45 44 43 43 44 44 43 42 42 42 41 42 41 38 37 36 35 33 33 33
14 16 18 20 21 22 27 31 34 33 30 27 26 25 26 26 27 28 32 35 35 39 46 50 49 46 44 45 45 46 45 45 43 46 45 43 42 40 38 37 36 35 34
14 16 17 18 19 22 27 30 33 32 28 25 25 25 24 25 25 25 26 26 28 30 36 43 51 50 48 45 42 47 46 47 46 48 47 44 44 43 41 40 40 38 36
13 15 16 17 18 22 26 28 29 27 25 24 25 24 24 22 22 19 18 20 23 27 30 33 41 50 50 47 44 45 48 48 47 48 48 45 45 44 42 41 39 39 40
13 14 15 16 19 21 23 25 27 25 22 21 27 23 25 18 16 15 15 17 14 20 24 29 31 35 47 47 45 43 47 47 49 48 47 45 43 43 40 42 40 42 44
13 13 15 16 18 20 21 23 24 24 23 23 25 27 16 13 11 11 23 15 15 16 15 19 27 29 31 38 42 44 36 46 47 46 45 45 44 44 36 42 45 43 46
11 12 13 16 18 19 20 22 23 24 20 21 20 20 14 13 5 26 10 14 15 15 16 16 20 25 26 27 30 37 44 36 45 44 43 44 43 44 41 44 49 48 48
11 13 15 15 15 17 18 20 20 21 21 19 16 10 9 8 30 6 11 11 18 18 16 12 10 17 21 22 27 33 32 44 39 43 42 40 41 42 40 36 37 42 41
11 12 13 14 15 15 16 16 18 21 21 21 18 6 12 17 10 18 10 21 23 20 18 22 21 13 15 24 31 29 28 27 36 36 40 39 36 36 40 44 40 41 39
10 11 12 13 14 14 15 15 18 18 19 18 17 17 15 14 15 20 28 24 26 21 14 19 25 7 15 22 20 23 28 24 25 35 33 40 35 37 37 41 37 43 41
9 10 11 11 12 12 13 15 17 17 18 19 20 17 14 13 17 16 25 28 27 25 21 17 14 20 4 12 14 18 19 22 18 19 23 24 31 37 40 38 36 36 44
7 9 10 10 11 12 13 15 15 15 17 21 21 18 15 15 16 16 19 23 21 22 16 10 9 13 16 13 3 3 14 18 13 13 16 20 23 28 35 39 38 39 37
7 8 8 9 10 11 13 14 13 15 17 20 21 19 17 16 15 13 15 17 22 13 13 8 6 13 15 18 13 9 9 9 14 17 17 18 18 22 26 27 27 31 29
7 7 7 8 9 11 12 13 13 17 17 18 20 21 19 17 15 11 10 12 12 11 18 11 1 12 16 17 14 12 18 10 6 10 16 17 18 21 24 26 24 30 32
5 5 6 7 8 9 11 12 13 16 17 16 19 21 21 18 15 12 8 10 10 10 12 11 4 5 7 8 8 13 16 12 13 8 5 5 8 15 19 21 22 23 27
4 4 5 6 7 8 10 11 12 15 17 17 19 21 23 20 17 14 8 8 9 9 11 7 5 5 2 4 7 13 13 16 16 18 9 8 7 5 9 14 15 16 18
4 3 3 4 6 7 9 10 12 14 16 17 19 21 23 22 19 17 12 9 8 4 3 9 8 6 6 7 11 15 19 18 14 16 12 5 6 9 11 7 9 11 13
3 3 2 3 5 6 8 9 11 13 15 16 19 21 23 24 23 20 17 13 10 5 5 9 8 7 9 11 10 12 19 19 18 11 15 7 7 7 14 10 7 9 7
4 3 1 1 3 5 7 8 10 12 13 16 17 20 22 24 25 22 19 16 13 11 9 9 9 8 7 8 9 10 10 10 17 17 16 18 9 12 14 12 14 12 9
6 3 2 1 2 3 5 7 8 10 12 13 15 17 19 23 24 24 21 18 16 14 12 11 12 9 10 9 9 12 13 12 12 13 12 14 13 9 12 13 12 10 8
6 5 4 2 1 2 4 6 8 9 10 11 13 15 17 19 21 22 21 21 20 17 18 16 17 17 12 11 8 4 3 3 3 10 16 17 13 14 14 16 14 12 11
7 6 4 3 2 3 4 6 8 8 9 11 12 14 15 17 19 19 20 20 21 23 22 20 18 16 13 15 14 12 12 7 8 8 10 11 12 14 17 17 15 14 12
8 7 5 4 3 3 4 5 7 8 9 10 11 12 14 16 17 17 18 19 21 23 24 23 22 21 17 11 8 8 9 11 10 7 11 6 7 9 12 16 17 15 14
10 8 7 5 3 3 4 4 6 7 8 9 11 11 12 13 16 15 16 18 19 22 21 20 19 17 16 15 12 9 8 3 8 12 10 9 9 6 7 11 14 14 13
11 9 8 6 4 3 3 3 4 5 6 7 9 10 11 12 13 13 13 15 16 19 17 16 15 15 16 16 16 16 15 15 6 6 11 11 10 6 2 9 12 13 11
Wind_Direction
339 341 341 341 340 339 338 335 329 321 314 308 302 296 291 287 283 275 268 261 259 259 254 251 248 246 243 242 242 238 235 234 232 231 229 226 224 224 227 226 227 226 223
343 343 342 339 339 341 341 340 335 328 322 315 310 304 297 290 284 279 276 271 263 257 256 252 250 248 244 242 241 240 236 234 232 231 229 229 226 225 225 226 227 229 226
346 347 345 341 340 341 343 344 342 334 326 320 316 312 307 303 297 289 282 277 274 265 254 253 251 249 248 244 241 239 238 234 232 231 230 229 227 225 225 226 226 228 230
350 348 343 338 337 338 339 339 339 335 328 323 319 314 310 305 301 298 295 288 280 273 266 256 251 249 247 245 243 237 236 236 232 230 232 230 228 226 224 225 226 227 229
346 343 338 337 337 338 339 341 341 336 330 325 320 315 311 309 302 298 298 301 296 288 276 267 253 249 246 244 242 237 235 234 234 233 232 230 230 229 226 226 231 234 232
343 342 341 343 344 344 346 347 346 340 335 328 321 321 314 310 304 299 302 301 297 292 287 275 263 255 249 244 244 239 237 233 232 234 232 229 233 233 231 231 233 237 245
345 343 344 347 350 355 355 354 351 344 343 332 334 326 328 306 297 298 305 286 305 329 283 277 268 256 247 250 243 241 241 234 232 232 231 230 228 230 238 241 235 240 236
341 341 348 353 358 359 358 356 351 347 345 343 336 336 330 339 277 314 315 298 301 331 341 285 277 257 245 243 246 245 239 240 232 233 233 231 227 232 243 248 235 244 236
342 353 357 355 354 355 352 349 349 350 343 345 340 328 336 314 324 318 331 319 302 325 0 341 282 265 252 243 244 242 240 239 233 233 235 233 232 237 242 230 236 235 235
352 352 349 350 350 347 345 346 345 354 347 343 342 312 303 287 300 313 304 323 313 309 358 16 6 270 234 231 239 249 238 234 241 232 227 231 235 236 230 236 240 238 236
345 348 349 345 346 347 346 346 347 353 356 347 338 327 314 296 286 283 307 316 320 317 327 10 9 314 250 240 240 235 235 236 232 235 242 238 234 232 236 232 234 236 232
340 342 339 340 346 348 346 349 351 354 353 351 344 335 316 307 298 299 302 308 319 325 321 353 344 1 90 227 245 238 247 239 230 229 238 241 238 239 241 237 251 241 237
332 331 337 346 348 346 348 352 357 356 349 356 349 338 324 312 305 298 300 307 312 324 335 356 360 345 17 60 142 190 217 227 220 220 228 233 235 236 238 242 247 248 236
321 331 339 345 348 350 355 358 357 355 350 356 352 353 338 330 318 304 300 302 316 324 336 335 42 37 16 24 43 91 172 192 213 221 221 237 232 232 238 240 241 249 245
317 326 338 345 349 352 1 5 0 357 0 354 356 2 353 344 333 322 308 300 301 308 316 341 53 37 15 8 37 47 89 97 136 212 212 212 231 234 231 234 230 231 236
312 321 333 342 351 357 6 14 10 3 7 0 1 6 6 357 350 343 326 314 296 275 274 309 92 97 43 35 40 55 62 82 89 88 125 180 221 225 222 217 215 217 218
297 315 329 342 358 6 14 20 17 16 17 12 10 13 15 10 7 357 346 325 313 284 270 246 200 147 119 95 104 91 92 80 95 91 101 104 116 162 201 202 208 216 215
284 297 317 352 4 13 23 24 23 21 22 22 20 21 23 22 21 15 5 359 339 331 196 199 172 151 130 135 136 118 101 97 94 89 96 85 64 97 101 158 173 187 199
266 274 308 357 14 20 25 28 27 26 26 27 30 29 31 30 31 31 22 25 24 39 167 159 135 136 124 124 119 121 118 100 96 98 93 102 143 118 103 111 116 118 147
229 237 278 17 22 23 28 34 31 27 27 31 33 33 36 38 38 38 39 40 46 64 87 103 107 109 114 106 112 94 91 91 100 94 75 93 91 89 96 111 108 103 109
204 190 167 82 28 28 35 46 41 36 32 34 38 39 37 44 45 44 46 49 57 63 77 84 78 82 82 82 83 81 70 65 64 79 66 79 83 84 69 79 94 92 105
196 188 178 170 92 58 63 65 58 47 42 42 46 45 45 44 45 47 52 57 58 68 68 72 75 69 73 79 59 71 66 43 44 58 57 54 59 64 59 58 64 63 66
193 186 181 172 137 93 81 77 69 58 55 53 52 53 50 51 54 48 48 57 63 66 65 67 68 68 71 69 69 59 60 74 93 79 71 48 38 49 49 49 46 44 52
189 188 181 169 159 123 95 83 74 64 60 59 58 56 54 53 53 54 55 56 58 61 61 60 60 58 55 57 77 79 55 64 70 83 98 50 71 61 48 42 39 35 35
196 192 180 170 160 143 110 92 79 65 62 61 61 59 58 54 51 49 53 56 58 59 58 57 60 60 55 53 59 87 97 115 59 56 63 71 35 61 49 41 39 34 35
196 190 186 177 166 149 140 113 103 80 64 56 56 63 61 58 54 50 52 56 57 59 58 57 58 60 61 63 62 61 71 64 88 46 49 63 44 61 7 12 25 29 35
Height
1531 1529 1527 1524 1522 1519 1516 1513 1510 1506 1503 1499 1496 1493 1491 1488 1487 1485 1484 1484 1484 1484 1485 1485 1485 1487 1490 1491 1493 1495 1498 1500 1504 1507 1509 1512 1515 1519 1523 1526 1529 1532 1535
1530 1528 1526 1523 1520 1517 1514 1510 1505 1500 1496 1492 1488 1485 1482 1480 1478 1476 1473 1472 1473 1474 1474 1475 1476 1477 1479 1481 1484 1486 1489 1491 1494 1498 1501 1504 1508 1512 1516 1520 1523 1526 1529
1527 1525 1523 1521 1518 1514 1511 1506 1501 1496 1490 1486 1482 1479 1475 1472 1470 1467 1465 1462 1461 1461 1463 1464 1466 1468 1469 1470 1473 1476 1480 1482 1485 1489 1493 1497 1500 1505 1508 1512 1516 1519 1523
1525 1523 1521 1518 1515 1512 1509 1504 1499 1493 1487 1482 1478 1475 1470 1467 1464 1461 1458 1456 1454 1452 1450 1452 1454 1456 1458 1460 1462 1466 1469 1473 1476 1479 1484 1488 1493 1496 1500 1504 1508 1511 1516
1523 1521 1519 1516 1513 1510 1505 1501 1496 1489 1484 1480 1475 1470 1466 1462 1459 1456 1453 1452 1449 1445 1442 1441 1441 1444 1447 1449 1452 1455 1459 1462 1466 1470 1475 1480 1485 1488 1492 1496 1500 1503 1506
1521 1519 1516 1513 1510 1506 1502 1497 1492 1488 1483 1479 1472 1467 1461 1458 1456 1454 1452 1447 1444 1439 1438 1434 1433 1434 1436 1440 1442 1446 1448 1452 1456 1461 1466 1471 1476 1481 1485 1489 1492 1495 1497
1518 1516 1513 1510 1507 1503 1499 1494 1489 1485 1481 1476 1469 1463 1460 1459 1456 1451 1446 1443 1440 1435 1430 1427 1427 1428 1430 1430 1432 1436 1439 1444 1449 1452 1456 1462 1467 1473 1477 1481 1484 1486 1491
1516 1514 1511 1507 1504 1500 1497 1494 1490 1485 1481 1477 1471 1465 1459 1455 1454 1446 1445 1442 1435 1432 1427 1423 1422 1422 1424 1427 1428 1429 1433 1434 1440 1444 1448 1453 1458 1464 1469 1471 1475 1478 1483
1513 1510 1506 1504 1502 1499 1497 1494 1490 1484 1480 1478 1473 1472 1465 1459 1451 1445 1442 1439 1433 1430 1425 1419 1417 1419 1420 1423 1422 1421 1422 1427 1431 1436 1441 1445 1450 1456 1460 1463 1467 1470 1473
1510 1508 1506 1503 1501 1499 1496 1492 1488 1483 1479 1475 1472 1472 1467 1466 1459 1442 1439 1437 1433 1428 1424 1419 1415 1412 1411 1411 1414 1415 1416 1420 1426 1429 1433 1438 1444 1448 1452 1456 1460 1463 1465
1508 1506 1504 1502 1500 1498 1495 1491 1487 1482 1477 1474 1470 1466 1463 1461 1458 1452 1438 1433 1432 1427 1424 1420 1418 1411 1410 1409 1408 1410 1412 1416 1419 1424 1427 1432 1437 1442 1445 1449 1452 1455 1458
1506 1504 1502 1500 1498 1496 1493 1489 1485 1481 1476 1472 1468 1464 1462 1458 1454 1450 1443 1437 1434 1428 1425 1422 1421 1415 1408 1409 1409 1407 1408 1412 1415 1418 1422 1426 1431 1435 1438 1441 1443 1445 1451
1504 1502 1501 1499 1497 1495 1492 1487 1483 1481 1477 1470 1467 1462 1459 1455 1450 1447 1444 1439 1435 1431 1426 1425 1422 1418 1414 1407 1408 1407 1407 1409 1412 1415 1419 1422 1425 1429 1431 1434 1437 1437 1443
1501 1501 1499 1498 1496 1493 1490 1487 1484 1480 1476 1470 1466 1461 1457 1452 1447 1444 1442 1440 1435 1432 1428 1427 1424 1421 1416 1413 1408 1407 1407 1407 1409 1413 1415 1418 1420 1423 1424 1429 1431 1434 1437
1500 1499 1498 1497 1495 1493 1488 1485 1483 1480 1475 1471 1465 1460 1455 1450 1446 1442 1440 1440 1439 1435 1431 1427 1425 1422 1420 1417 1413 1414 1403 1407 1408 1411 1411 1413 1416 1418 1420 1423 1423 1429 1432
1498 1498 1497 1496 1493 1491 1487 1485 1482 1480 1475 1472 1465 1460 1454 1450 1445 1441 1438 1438 1437 1435 1433 1429 1426 1425 1423 1421 1418 1415 1409 1409 1409 1411 1411 1412 1414 1415 1418 1420 1422 1425 1428
1496 1497 1497 1496 1491 1489 1487 1484 1482 1479 1476 1471 1466 1460 1454 1450 1445 1441 1438 1436 1434 1432 1430 1429 1427 1425 1424 1420 1421 1419 1416 1414 1413 1412 1414 1413 1414 1414 1416 1417 1419 1421 1423
1495 1495 1495 1493 1491 1490 1486 1484 1482 1479 1476 1471 1466 1461 1456 1451 1446 1441 1438 1435 1433 1430 1429 1427 1427 1426 1425 1424 1423 1419 1419 1420 1417 1416 1417 1414 1415 1417 1417 1416 1416 1419 1422
1493 1494 1493 1491 1490 1489 1486 1484 1482 1479 1476 1472 1467 1462 1458 1453 1447 1443 1440 1436 1433 1431 1429 1428 1428 1428 1427 1427 1427 1425 1420 1421 1417 1417 1420 1418 1418 1420 1421 1415 1416 1419 1421
1492 1493 1491 1490 1489 1488 1487 1485 1483 1480 1477 1473 1469 1465 1460 1455 1450 1446 1443 1440 1437 1434 1433 1432 1432 1431 1430 1430 1428 1429 1425 1426 1424 1424 1425 1420 1421 1423 1423 1421 1419 1420 1421
1491 1489 1489 1490 1488 1487 1486 1485 1483 1481 1478 1474 1471 1468 1464 1459 1455 1451 1447 1444 1441 1439 1437 1436 1435 1435 1434 1434 1432 1431 1431 1428 1423 1424 1429 1423 1420 1426 1424 1421 1419 1423 1423
1488 1488 1488 1487 1487 1487 1486 1485 1483 1481 1479 1476 1473 1471 1468 1464 1459 1456 1452 1449 1445 1443 1441 1441 1439 1438 1438 1437 1437 1436 1435 1434 1435 1434 1429 1428 1428 1430 1426 1424 1426 1427 1424
1486 1487 1486 1486 1486 1486 1486 1485 1483 1481 1479 1477 1475 1473 1470 1467 1464 1461 1458 1454 1451 1448 1446 1445 1443 1442 1442 1441 1440 1439 1439 1438 1437 1437 1437 1435 1436 1433 1432 1430 1428 1430 1428
1484 1485 1484 1485 1485 1485 1485 1484 1483 1482 1480 1478 1476 1474 1472 1470 1467 1465 1462 1459 1456 1453 1451 1449 1448 1447 1445 1444 1443 1442 1443 1441 1441 1441 1438 1439 1440 1437 1437 1435 1432 1432 1430
1482 1483 1483 1484 1484 1484 1484 1484 1482 1481 1480 1479 1478 1476 1474 1472 1470 1468 1466 1463 1460 1457 1456 1455 1453 1452 1450 1448 1445 1444 1444 1447 1445 1441 1440 1440 1439 1439 1439 1437 1437 1434 1432
1481 1482 1482 1483 1483 1483 1483 1483 1482 1482 1481 1480 1478 1477 1476 1474 1473 1471 1469 1466 1464 1462 1461 1459 1458 1456 1454 1451 1449 1446 1444 1444 1443 1444 1442 1442 1442 1441 1445 1441 1438 1436 1435